Pierre, SD

8:26 AM CST on February 24, 2018 (GMT -0600)
Pierre Regional

Weather History for KPIR - March, 2014

Change the Weather History Date:

Tuesday, March 25, 2014

  Actual Average Record
Temperature  
Mean Temperature 23 °F 38 °F  
Max Temperature 36 °F 49 °F 82 °F (1939)
Min Temperature 9 °F 27 °F -2 °F (1964)
Degree Days  
Heating Degree Days 42 27  
Month to date heating degree days 914 793  
Since 1 July heating degree days 6909 6291  
Cooling Degree Days 0 0  
Month to date cooling degree days 0 0  
Year to date cooling degree days 0 0  
Moisture  
Dew Point 9 °F    
Average Humidity 56    
Maximum Humidity 80    
Minimum Humidity 32    
Precipitation  
Precipitation 0.00 in 0.04 in 0.67 in (1942)
Month to date precipitation 0.34 0.92  
Year to date precipitation 0.91 1.93  
Snow  
Snow 0.00 in 0.10 in 3.00 in (1942)
Month to date snowfall 3.7 5.0  
Since 1 July snowfall 28.6 26.8  
Snow Depth 0.00 in    
Sea Level Pressure  
Sea Level Pressure 30.28 in    
Wind  
Wind Speed 9 mph (North)    
Max Wind Speed 20 mph    
Max Gust Speed 25 mph    
Visibility 10 miles    
Events      
T = Trace of Precipitation, MM = Missing Value Source: NWS Daily Summary

Daily Weather History Graph

Daily Weather History Graph

Search for Another Location

Airport or City:

Trip Planner

Search our weather history database for the weather conditions in past years. The results will help you decide how hot, cold, wet, or windy it might be!

Date:

Astronomy

Mar. 25, 2014 Rise Set
Actual Time 7:35 AM CDT 7:59 PM CDT
Civil Twilight 7:05 AM CDT 8:29 PM CDT
Nautical Twilight 6:31 AM CDT 9:03 PM CDT
Astronomical Twilight 5:56 AM CDT 9:38 PM CDT
Moon 4:09 AM CDT (3/25) 2:21 PM CDT (3/25)
Length of Visible Light 13h 23m
Length of Day
12h 24m
Waning Crescent, 32% of the Moon is Illuminated
Mar 25
Waning Crescent
Mar 30
New
Apr 7
First Quarter
Apr 15
Full
Apr 22
Last Quarter

Hourly Weather History & Observations

Time (CDT) Temp. Windchill Dew Point Humidity Pressure Visibility Wind Dir Wind Speed Gust Speed Precip Events Conditions
12:53 AM 19.9 °F 9.3 °F 14.0 °F 78% 30.41 in 10.0 mi NW 9.2 mph - N/A   Clear
1:53 AM 19.0 °F 8.2 °F 12.9 °F 77% 30.43 in 10.0 mi NNW 9.2 mph - N/A   Clear
2:53 AM 16.0 °F 5.3 °F 10.9 °F 81% 30.44 in 10.0 mi NNW 8.1 mph - N/A   Clear
3:53 AM 16.0 °F 2.9 °F 8.1 °F 71% 30.43 in 10.0 mi NNW 11.5 mph - N/A   Scattered Clouds
4:53 AM 17.1 °F 6.6 °F 8.1 °F 68% 30.44 in 10.0 mi NNW 8.1 mph - N/A   Overcast
5:53 AM 15.1 °F 5.2 °F 6.1 °F 68% 30.44 in 10.0 mi NNW 6.9 mph - N/A   Overcast
6:53 AM 12.9 °F 1.6 °F 5.0 °F 71% 30.45 in 10.0 mi NNW 8.1 mph - N/A   Clear
7:53 AM 10.9 °F 1.4 °F 5.0 °F 77% 30.46 in 10.0 mi NW 5.8 mph - N/A   Clear
8:53 AM 17.1 °F 10.0 °F 8.1 °F 68% 30.45 in 10.0 mi WNW 4.6 mph - N/A   Clear
9:53 AM 19.9 °F 12.1 °F 8.1 °F 60% 30.43 in 10.0 mi NW 5.8 mph - N/A   Clear
10:53 AM 21.0 °F 13.4 °F 6.1 °F 53% 30.42 in 10.0 mi NW 5.8 mph - N/A   Clear
11:53 AM 24.1 °F 16.0 °F 6.1 °F 46% 30.39 in 10.0 mi NW 6.9 mph - N/A   Clear
12:53 PM 27.0 °F - 7.0 °F 43% 30.33 in 10.0 mi North - - N/A   Clear
1:53 PM 28.0 °F 21.7 °F 8.1 °F 43% 30.30 in 10.0 mi NW 5.8 mph - N/A   Clear
2:53 PM 30.9 °F 25.2 °F 8.1 °F 38% 30.25 in 10.0 mi SSW 5.8 mph - N/A   Clear
3:53 PM 32.0 °F - 7.0 °F 35% 30.21 in 10.0 mi Calm Calm - N/A   Partly Cloudy
4:53 PM 33.1 °F 26.1 °F 8.1 °F 35% 30.17 in 10.0 mi East 8.1 mph - N/A   Overcast
5:53 PM 36.0 °F 30.3 °F 9.0 °F 33% 30.13 in 10.0 mi SSE 6.9 mph - N/A   Mostly Cloudy
6:53 PM 34.0 °F 25.5 °F 9.0 °F 35% 30.10 in 10.0 mi ESE 11.5 mph - N/A   Mostly Cloudy
7:53 PM 30.9 °F 21.7 °F 10.0 °F 42% 30.07 in 10.0 mi ESE 11.5 mph - N/A   Overcast
8:53 PM 28.0 °F 17.0 °F 9.0 °F 45% 30.04 in 10.0 mi ESE 13.8 mph - N/A   Clear
9:53 PM 27.0 °F 16.1 °F 9.0 °F 47% 30.01 in 10.0 mi ESE 12.7 mph - N/A   Clear
10:53 PM 28.0 °F 16.1 °F 10.9 °F 49% 29.97 in 10.0 mi ESE 16.1 mph - N/A   Clear
11:53 PM 27.0 °F 14.7 °F 10.9 °F 51% 29.93 in 10.0 mi ESE 16.1 mph - N/A   Clear